WELCOME TO TCFT

Voted One Of The Best Flight Schools In The USA

 

 

Learn More

BECOME AN AIRLINE PILOT

Treasure Coast Flight Training is committed to serving all of your aviation needs as a full service flight academy, aircraft rental facility, and pilot shop

Contact Us

 

 

Questions About Becoming An Airline Pilot?

Get Started

 

 

What Our Graduates Say

 

 

The training I received with Treasure Coast Flight Training prepared me to become a professional pilot

 

Nathan Meisner

Pilot - Cessna Caravan - USA

Professional yet relaxed environment. Truly an enjoyable experience to fly with TCFT

 

Sophia

Certified Flight Instructor - China

The training I needed to get me to where I am now!

 

Enderson Rafael

Pilot - Go Airlines - Brazil

Thank you TCFT for making me an airline pilot!

 

Kyle Barrett

Pilot - GoJet Airlines - USA

Current Conditions

 

Metar

 

KSUA 261547Z 01010KT 7SM SKC 26/16 A3016

 

TAF

 

TAF KSUA 261120Z 2612/2712 35008KT P6SM SCT020 FM261500 04014G20KT P6SM SCT035 TEMPO 2619/2623 BKN035 FM270000 06012KT P6SM BKN035 FM270600 08010KT P6SM VCSH BKN035

 

 

Look No Further. Get Started Today

 

 

Enroll Now